Regional Weather Roundup
Issued by NWS Sterling, VA

Home | Current Version | Previous Version | Graphics & Text | Print | Product List | Glossary On
Versions: 1 2 3 4 5 6 7 8 9 10 11 12 13 14 15 16 17 18 19 20 21 22 23 24 25 26 27 28 29 30 31 32 33 34 35 36 37 38 39 40 41 42 43 44 45 46 47 48 49 50
000
ASUS41 KLWX 302210
RWRLWX

REGIONAL WEATHER ROUNDUP
NATIONAL WEATHER SERVICE BALTIMORE MD/WASHINGTON DC
600 PM EDT SUN AUG 30 2015

Note: "FAIR" indicates few or no clouds below 12,000 feet
with no significant weather and/or obstructions to visibility.
 TC=TEMPERATURE CELSIUS

 * =Non NWS site. Station does not report precipitation (e.g. rain,
    snow, etc.), thunder, or fog.

DCZ001-MDZ009-015-VAZ040>042-051-053>054-302300-
WASHINGTON METRO

CITY           SKY/WX    TMP DP  RH WIND       PRES   REMARKS
WASHINGTON NAT CLOUDY    86  66  51 SW8       30.07R
DULLES         PTSUNNY   83  66  56 S7        30.07R
ANDREWS AFB    PTSUNNY   85  65  51 S9        30.07R
FT BELVOIR     PTSUNNY   83  69  61 S3        30.07S
QUANTICO       CLOUDY    83  66  56 CALM      30.08R
COLLEGE PARK*  PTSUNNY   86  63  45 S6        30.06R
LEESBURG*      PTSUNNY   84  72  65 S9        30.07S
MANASSAS*      SUNNY     82  72  69 S6        30.07S
GAITHERSBURG*  MOSUNNY   84  63  48 S3        30.11R

$$

MDZ006>007-011-014-302300-
BALTIMORE METRO

CITY           SKY/WX    TMP DP  RH WIND       PRES   REMARKS
BWI AIRPORT    PTSUNNY   84  66  54 SE6       30.05S
MD SCIENCE CTR   N/A     86  65  49 MISG      30.05S
MARTIN STATE   PTSUNNY   81  75  83 SE10      30.07S
ANNAPOLIS      MOSUNNY   80  70  71 S9        30.06R
FORT MEADE*    MOSUNNY   81  68  65 S6        30.08S

$$

MDZ012-015-019>023-302300-
MARYLAND EASTERN SHORE

CITY           SKY/WX    TMP DP  RH WIND       PRES   REMARKS
OCEAN CITY     PTSUNNY   80  67  64 SW10      30.09S
SALISBURY      PTSUNNY   81  66  60 S7        30.08S
BAY BRIDGE AP*   N/A     81  64  57 S7        30.07R
CAMBRIDGE*     PTSUNNY   82  64  54 S5        30.08R
EASTON*        PTSUNNY   84  66  54 SW12      30.11S

$$

MDZ017>025-302300-
SOUTHERN MARYLAND

CITY           SKY/WX    TMP DP  RH WIND       PRES   REMARKS
PATUXENT RIVER CLOUDY    82  66  58 S5        30.08R
ST INIGOES     CLOUDY    82  68  62 S5        30.08R
LEONARDTOWN*   CLOUDY    81  63  54 CALM      30.10R

$$

MDZ003>005-302300-
NORTH CENTRAL MARYLAND

CITY           SKY/WX    TMP DP  RH WIND       PRES   REMARKS
FREDERICK*     SUNNY     88  68  51 S10       30.07S HX  91
HAGERSTOWN APT CLOUDY    86  63  45 N6        30.04S
WESTMINSTER*   MOSUNNY   88  64  45 S9        30.07R

$$

MDZ501>502-302300-
WESTERN MARYLAND

CITY           SKY/WX    TMP DP  RH WIND       PRES   REMARKS
OAKLAND*       MOSUNNY   73  61  64 W5        30.19S
CUMBERLAND*    MOSUNNY   90  59  35 SW7       30.08S

$$

VAZ025>031-302300-
SHENANDOAH VALLEY

CITY           SKY/WX    TMP DP  RH WIND       PRES   REMARKS
WINCHESTER*    PTSUNNY   86  64  48 S12       30.07R
FRONT ROYAL*   FAIR      81  64  57 S3        30.07R
LURAY*         FAIR      82  59  44 S3        30.10R
NEW MARKET*    FAIR      82  62  52 S7        30.08R
STAUNTON*      CLOUDY    84  61  46 S6        30.14R
WAYNESBORO*    CLOUDY    81  64  57 S6        30.14S

$$

WVZ021-048>050-054>055-302300-
EASTERN WEST VIRGINIA PANHANDLE

CITY           SKY/WX    TMP DP  RH WIND       PRES   REMARKS
MARTINSBURG    PTSUNNY   85  66  53 SE13G20   30.05S
PETERSBURG*    PTSUNNY   85  62  45 SE5       30.07S

$$

VAZ036>039-050-302300-
CENTRAL FOOTHILLS

CITY           SKY/WX    TMP DP  RH WIND       PRES   REMARKS
CHARLOTTESVILL CLOUDY    82  66  58 S7        30.10R
CULPEPER*      CLOUDY    81  69  67 CALM      30.08S
ORANGE*        DRIZZLE   82  66  57 S3        30.11R
GORDONSVILLE*  MOCLDY    80  69  69 CALM      30.09R
WARRENTON*     FAIR      84  69  60 CALM      30.07S

$$

VAZ055>057-302300-
NORTH AND CENTRAL PIEDMONT

CITY           SKY/WX    TMP DP  RH WIND       PRES   REMARKS
FREDERICKSBRG* CLOUDY    86  68  54 S6        30.07R
STAFFORD*      CLOUDY    81  69  66 CALM      30.12R

$$

NCZ024-NYZ072-PAZ021-071-VAZ022-071-302300-
OTHER REGIONAL OBSERVATIONS

CITY           SKY/WX    TMP DP  RH WIND       PRES   REMARKS
NEW YORK CITY  PTSUNNY   84  66  54 VRB5      30.04S
PHILADELPHIA   PTSUNNY   88  64  44 SW14      30.03F
PITTSBURGH     PTSUNNY   82  66  58 SW7       30.07F
ROANOKE        CLOUDY    80  63  55 S9        30.15S
RICHMOND       CLOUDY    83  64  52 S5        30.10R
RALEIGH        CLOUDY    81  63  54 SW6       30.14F

$$

ANZ530>537-302300-
MARINE OBSERVATIONS

STATION/POSITION TIME  TEMP    WIND        PRES
                       AIR SEA DIR/SP/G
                 (UTC) (F)     (DEG/KT/KT) (MB)
THOMAS PT LIGHT  NOT AVBL

$$



USA.gov is the U.S. government's official web portal to all federal, state and local government web resources and services.